Theta_e
321 321 322 323 319 316 320 323 319 321 321 343 344 343 342 344 345 349 350 348 345 337 335 334 332 331 330 329 327 328 327 327 327 326 324 324 324 321 321 322 325 327 329 330 330 330 330 330 333
321 321 322 322 318 319 319 320 319 321 330 342 342 342 342 343 346 347 349 349 346 337 337 336 335 333 331 331 330 329 329 328 328 327 326 326 326 326 322 321 323 325 326 328 330 329 330 330 330
322 321 322 316 315 320 320 320 318 320 326 334 335 338 340 340 343 348 350 351 348 343 340 338 337 335 334 333 332 332 331 330 329 329 328 327 328 328 328 325 322 322 325 326 328 329 329 330 330
322 321 321 318 320 319 320 320 321 321 333 336 335 329 338 341 344 345 350 349 347 345 340 339 337 337 337 335 334 333 333 332 332 331 331 330 329 330 329 329 328 325 323 324 326 327 329 329 330
321 320 316 319 321 321 320 322 323 322 330 328 330 324 333 340 342 344 344 344 340 331 335 337 336 337 337 337 337 336 335 335 334 334 334 334 333 332 332 331 330 330 328 325 324 325 327 328 329
320 319 317 319 320 320 321 323 323 326 326 324 324 322 322 336 334 337 340 340 335 336 338 339 341 340 338 338 338 338 338 337 337 336 336 335 335 335 335 335 334 332 331 330 328 325 324 325 328
318 315 319 320 319 322 323 323 321 321 322 322 323 320 321 324 336 334 331 332 327 334 343 344 343 341 342 342 340 339 339 339 339 338 338 337 336 335 335 336 336 336 334 333 332 330 328 325 325
317 314 318 317 318 321 322 322 323 322 321 323 322 320 320 323 332 333 334 332 336 338 341 341 341 340 338 337 338 340 340 340 340 340 339 339 338 337 336 336 335 336 337 336 335 334 333 329 326
317 312 313 316 321 322 320 321 323 322 322 321 321 321 323 323 323 330 335 340 339 340 341 343 342 339 339 338 339 340 341 341 341 340 340 339 339 339 338 338 336 335 335 335 335 335 335 333 331
314 311 314 314 320 319 317 320 322 322 320 320 322 322 322 322 322 324 327 328 329 330 330 333 339 342 343 343 343 342 345 341 342 340 337 341 341 341 339 339 339 337 336 337 336 335 335 335 334
314 313 313 318 320 319 317 317 318 320 319 320 322 323 322 322 322 322 322 323 322 321 318 319 319 329 339 342 344 341 341 341 339 332 329 341 341 341 344 344 341 340 339 338 338 338 337 336 335
316 316 317 318 319 318 317 317 317 319 320 320 322 322 322 322 322 322 322 321 319 317 315 314 314 316 317 324 338 341 336 337 336 338 338 338 339 340 338 339 339 339 338 337 337 336 336 336 336
315 315 316 317 318 318 318 317 316 318 320 321 321 321 321 321 321 321 320 320 318 315 314 313 313 316 318 320 321 328 334 336 336 334 336 336 336 334 331 327 329 333 334 335 336 335 334 334 333
316 317 316 317 317 317 316 316 317 317 320 320 321 320 320 320 320 319 319 318 315 313 312 313 315 317 320 321 321 322 325 327 329 331 331 330 329 327 326 329 328 326 328 329 330 329 329 331 334
317 316 315 316 316 316 317 315 315 318 319 320 319 319 319 319 319 318 316 315 314 312 313 315 316 317 320 320 319 319 319 320 322 322 323 324 324 324 324 325 325 326 325 325 326 327 329 330 332
316 316 315 314 315 315 315 314 314 317 318 320 319 318 318 317 317 316 316 314 313 312 313 314 315 315 318 317 315 315 315 318 319 318 318 318 319 317 317 320 321 322 323 323 325 326 326 326 326
313 313 314 315 315 315 313 314 315 318 316 319 318 318 317 316 315 314 313 313 312 312 313 313 313 312 313 315 313 311 311 311 310 309 310 309 309 308 308 308 308 309 309 310 313 317 320 320 321
313 314 314 315 316 315 315 315 315 316 317 318 318 315 315 314 313 313 313 312 312 313 313 312 312 312 310 309 309 308 308 308 309 309 308 308 308 308 308 308 306 305 304 305 306 308 310 311 313
316 316 314 314 315 315 314 313 313 315 315 313 317 314 314 313 312 313 312 312 312 312 312 310 310 310 310 309 308 308 308 307 307 306 304 303 302 302 303 304 305 306 307 306 304 303 304 306 309
314 314 315 315 315 315 313 311 312 312 313 316 315 314 314 313 312 312 312 312 312 311 311 310 310 306 302 302 302 303 303 302 302 301 301 302 302 302 302 302 301 301 301 302 304 305 305 303 304
315 314 315 316 314 312 312 312 313 313 314 316 313 316 314 313 312 312 312 312 310 310 310 309 306 301 301 301 301 301 301 301 301 301 301 302 302 302 302 301 301 301 301 301 300 301 302 304 303
315 314 315 315 313 313 312 314 313 312 311 312 314 313 312 312 313 312 312 311 310 309 308 304 301 301 301 301 301 302 302 302 301 301 301 301 301 301 301 301 301 300 300 300 299 299 299 300 301
314 315 314 314 312 312 312 311 312 310 311 312 312 311 311 312 312 312 312 311 310 308 305 302 301 301 301 301 301 301 302 301 301 301 301 302 301 301 300 299 299 298 298 296 295 294 294 294 296
313 312 311 310 310 312 311 311 311 309 311 313 313 311 311 312 312 312 311 310 308 306 305 302 301 301 301 301 301 301 301 301 301 301 301 301 301 300 299 298 297 296 295 294 292 290 291 291 292
311 310 311 310 312 313 312 311 310 311 314 315 314 312 312 312 312 311 309 309 307 306 304 303 302 301 301 300 300 301 301 300 300 300 300 300 300 299 298 297 296 295 294 293 292 289 289 289 290
310 311 312 314 314 313 312 313 311 316 316 315 315 313 311 311 311 310 310 308 307 306 307 304 301 300 300 300 300 300 300 300 299 299 299 299 299 298 296 296 296 295 294 293 292 291 290 289 289
311 312 311 312 313 313 312 312 313 316 316 316 315 312 311 310 309 307 306 306 306 306 306 304 301 300 300 299 299 299 299 298 297 297 297 297 297 296 296 295 295 295 294 294 293 293 291 290 289
310 310 312 311 315 315 312 312 311 315 317 317 316 315 313 312 311 310 307 306 306 305 305 303 301 300 299 299 298 298 295 293 292 292 292 293 293 293 293 292 292 292 292 293 294 293 292 292 291
312 312 312 312 313 312 312 309 312 313 314 314 315 316 315 314 314 313 313 307 306 307 306 304 302 300 299 298 297 296 293 291 289 289 289 288 288 289 288 287 286 287 288 289 290 291 291 292 291
310 309 312 314 314 313 312 312 313 312 312 313 315 315 315 316 315 314 310 306 306 305 303 303 301 299 298 297 296 294 291 289 288 288 288 287 286 286 286 286 286 285 285 286 286 286 287 289 291
Wind_Speed
9 8 8 3 4 5 4 3 3 2 5 20 20 22 13 12 4 4 7 7 7 19 15 13 12 12 12 11 10 11 10 9 8 7 5 4 3 4 5 6 6 6 7 8 8 6 6 5 5
8 8 4 2 5 4 5 4 4 3 18 28 26 23 18 8 17 12 9 7 10 14 12 10 10 10 10 10 10 9 9 8 7 6 6 5 3 2 3 4 5 6 7 8 8 8 7 6 6
9 7 3 4 4 3 4 4 5 7 10 12 7 15 8 8 9 10 12 12 12 8 8 8 8 8 8 8 7 8 7 7 7 7 7 6 6 6 5 4 5 6 7 8 9 9 9 8 7
8 3 4 4 2 6 6 6 5 9 25 23 21 7 18 18 16 17 16 12 8 9 6 6 7 6 6 5 5 5 6 6 7 7 8 9 9 9 9 9 7 7 7 8 9 10 11 11 10
7 2 4 2 4 5 4 4 8 8 10 23 31 10 20 25 20 17 12 10 5 8 8 7 5 4 3 4 5 5 5 5 6 7 9 10 11 12 12 13 13 11 10 10 10 11 12 13 13
2 2 4 2 4 7 5 3 6 16 22 26 23 12 10 16 10 10 10 11 9 10 11 12 9 4 1 2 4 4 6 7 8 8 9 10 11 13 14 15 16 16 16 14 13 13 13 14 15
4 4 3 2 4 4 2 7 4 11 14 6 20 6 10 14 19 15 11 11 10 9 10 10 9 7 5 3 0 4 5 6 8 10 11 12 12 13 14 16 18 19 19 20 19 18 17 16 17
2 4 1 1 4 4 4 6 8 6 10 25 21 6 6 16 21 18 18 14 11 11 8 6 3 4 4 4 4 4 1 3 7 9 11 12 12 13 14 16 18 20 22 23 24 22 20 21 20
5 3 0 3 1 3 10 3 5 6 11 11 12 27 25 22 17 19 19 18 12 11 10 7 4 3 4 6 6 6 5 5 8 9 9 12 11 13 13 14 17 19 22 25 25 26 25 25 25
4 4 6 5 1 0 5 5 2 5 14 17 27 24 22 18 16 18 16 12 9 7 5 2 2 5 5 7 7 8 12 12 10 8 8 9 11 13 15 15 18 20 21 22 24 26 27 27 28
3 5 5 4 4 1 2 5 6 13 5 19 26 23 18 17 13 10 8 4 2 2 4 4 5 8 11 9 8 11 10 16 15 16 12 13 12 12 9 13 16 18 19 21 23 24 26 26 27
3 9 6 5 7 3 2 2 4 4 7 25 25 23 20 16 13 9 5 2 4 6 9 10 9 8 8 11 11 10 16 14 10 10 11 11 11 13 13 15 15 17 18 20 22 24 26 26 24
2 5 6 6 8 8 6 4 5 2 24 26 26 23 21 17 13 9 6 5 6 7 9 10 9 8 7 6 5 5 7 14 12 9 9 10 12 15 18 20 18 20 21 21 22 23 24 24 22
11 8 9 4 8 6 6 7 6 7 27 27 24 23 22 17 13 9 6 4 6 7 6 5 6 5 4 5 4 3 2 4 10 14 14 16 16 18 17 15 15 18 18 17 21 22 23 22 17
8 6 7 10 5 6 6 5 9 18 28 28 26 26 23 18 15 12 8 5 4 3 3 3 4 5 3 3 3 4 3 2 3 5 8 11 10 10 12 14 15 16 17 16 18 18 20 19 16
3 3 3 5 2 8 11 8 8 19 29 29 28 26 23 20 16 12 9 6 2 1 1 2 3 3 3 4 4 4 4 5 6 7 8 8 9 10 10 11 12 13 14 15 16 16 15 15 16
2 3 5 9 6 5 6 8 7 14 28 30 31 29 27 22 17 15 11 7 5 4 3 3 3 3 3 2 1 3 6 7 8 8 8 9 10 11 12 12 12 13 14 14 13 12 14 13 13
6 4 4 5 5 5 2 5 3 11 29 30 30 29 29 27 23 18 13 8 5 5 5 4 3 3 3 4 4 3 3 5 8 11 13 14 14 14 13 12 12 14 14 14 13 13 12 14 16
1 2 6 5 5 2 6 6 10 10 6 12 25 27 31 29 25 20 15 9 8 7 5 3 3 2 3 5 6 4 2 5 8 11 13 14 16 16 17 18 18 17 17 17 16 15 14 12 15
7 9 8 5 4 1 6 7 8 5 9 19 25 27 34 32 29 24 17 13 11 8 5 2 2 5 6 6 5 3 3 6 9 10 12 14 15 16 17 17 18 20 20 18 18 18 16 13 11
7 7 4 6 4 2 3 8 5 5 8 17 19 38 40 41 35 25 19 15 12 9 6 6 7 7 7 7 6 5 5 5 6 11 15 17 19 20 21 20 19 19 18 18 16 15 14 16 11
13 8 5 2 3 3 3 9 4 5 9 6 18 32 36 37 32 26 22 18 13 11 9 9 9 7 6 6 4 3 6 9 13 15 17 17 19 19 20 20 19 18 17 16 14 14 13 11 14
8 5 4 4 4 1 4 1 1 5 7 6 11 25 31 37 33 29 24 19 13 11 10 10 8 6 5 3 2 4 6 9 10 11 13 15 18 19 20 21 20 19 18 16 14 13 11 11 11
3 5 5 4 3 4 7 7 13 5 5 2 10 24 35 37 32 29 25 20 15 11 10 8 5 4 3 2 2 5 7 9 10 12 14 16 17 18 19 20 20 19 18 16 14 11 8 8 8
2 6 1 2 1 8 7 7 11 9 10 8 17 31 40 37 37 33 28 20 14 11 8 5 3 3 2 1 3 5 7 9 11 12 13 14 15 16 18 19 21 22 19 17 14 11 10 9 8
8 8 6 6 4 4 5 5 3 1 16 7 13 16 20 26 31 29 24 19 14 10 5 5 7 6 3 2 4 6 7 9 10 11 11 12 12 14 15 16 18 20 19 19 18 16 14 12 9
5 9 8 5 0 0 4 4 1 9 14 25 24 24 20 20 22 22 20 17 13 7 4 6 7 6 4 4 5 6 8 8 9 8 8 9 9 10 11 13 15 16 17 18 18 20 19 17 14
7 6 4 1 5 5 5 4 5 4 5 7 15 23 20 17 21 22 22 17 14 9 7 9 8 7 7 6 7 7 7 8 8 7 6 7 8 8 9 11 13 13 14 16 18 20 21 21 20
2 1 3 4 4 4 2 5 5 6 8 8 9 21 26 28 28 29 33 30 21 17 13 10 12 10 9 8 6 6 7 7 6 6 7 8 8 9 10 11 12 13 13 14 16 17 20 21 20
6 4 5 3 4 1 3 5 5 5 7 17 18 20 25 30 30 31 35 32 24 19 15 10 9 9 9 10 7 5 6 6 6 7 7 8 8 9 10 10 11 12 13 14 16 17 18 19 21
Wind_Direction
355 347 328 31 51 61 293 307 233 25 75 76 84 84 88 67 61 152 141 106 126 171 161 157 158 155 153 151 150 152 152 154 157 157 154 145 129 132 144 156 169 189 196 200 202 208 211 205 193
4 352 4 69 83 49 291 264 112 103 107 100 86 88 67 62 83 106 129 116 102 164 162 162 164 165 162 161 160 161 163 168 175 179 182 188 195 185 181 178 182 197 210 214 219 223 222 219 213
348 351 41 87 100 164 225 250 196 76 116 121 84 57 69 93 99 103 112 117 100 114 174 175 177 174 170 166 164 169 177 187 194 204 211 220 226 230 237 235 218 214 222 224 230 233 232 232 230
345 6 77 84 211 264 209 237 208 124 90 91 97 56 89 92 101 111 114 107 94 75 97 175 180 183 183 177 178 188 200 208 214 221 227 229 236 242 245 251 254 247 242 242 241 242 239 241 242
1 36 54 49 275 279 257 193 131 102 91 108 106 106 86 104 114 114 102 79 82 85 90 111 142 165 189 203 211 217 221 232 237 239 240 242 241 245 249 252 257 261 260 256 252 249 244 244 249
38 60 46 329 302 286 299 83 108 90 112 107 98 91 95 122 114 112 124 120 122 126 107 109 113 112 167 243 252 252 251 253 258 258 257 254 253 252 254 256 258 259 263 263 262 260 257 252 250
123 90 213 223 262 322 285 56 57 110 130 114 130 106 120 116 135 146 143 141 153 136 127 124 127 120 117 135 240 279 279 278 275 273 268 265 264 262 262 262 261 261 260 262 261 260 260 260 259
345 101 321 258 293 270 347 88 87 69 81 129 122 143 121 113 154 148 151 151 148 148 157 156 160 166 179 169 148 147 203 279 272 272 273 276 275 274 273 270 269 269 267 262 261 260 261 263 263
240 50 10 260 243 292 357 116 83 95 93 99 116 126 126 124 142 159 147 149 149 135 130 142 167 216 237 242 214 197 220 257 249 243 254 257 258 261 263 267 269 269 270 269 269 267 264 261 262
129 132 216 217 243 320 17 36 32 113 96 106 113 126 144 157 155 147 150 145 149 138 106 55 257 238 247 275 276 237 244 245 232 224 251 245 239 246 249 255 260 262 263 267 269 265 265 265 264
192 201 197 239 199 156 49 28 7 125 127 154 140 136 154 172 175 171 148 129 78 19 338 322 307 279 272 256 253 258 271 260 246 263 262 260 260 259 263 263 269 269 271 271 272 268 264 263 265
297 251 196 183 194 197 174 44 347 347 172 161 145 147 152 162 169 180 187 267 325 333 345 349 340 321 300 277 267 245 252 252 250 254 259 256 252 259 268 266 275 266 271 276 274 274 276 271 264
215 333 342 9 180 193 176 244 235 129 150 152 151 156 154 157 165 179 194 217 270 298 311 315 320 319 321 327 335 280 243 248 260 264 265 266 266 271 277 283 281 275 277 279 281 282 286 289 286
312 315 316 291 262 252 197 213 204 173 160 156 159 149 150 161 171 179 200 245 287 304 314 334 331 331 328 335 352 353 306 262 260 269 283 282 284 283 283 289 288 292 296 301 295 293 290 289 293
310 329 340 276 246 229 193 275 222 218 175 163 157 153 157 167 184 204 217 205 265 327 358 6 21 26 24 22 13 11 18 11 326 314 297 301 307 307 302 302 300 291 292 294 292 292 292 292 282
24 31 323 274 222 241 162 253 248 242 186 168 162 165 171 173 190 188 209 209 155 63 80 89 91 68 70 54 25 6 346 354 352 344 346 335 321 316 320 308 298 293 290 290 288 290 288 286 283
350 219 218 309 215 208 158 233 232 260 186 169 170 175 171 163 168 176 188 193 151 151 121 92 93 105 116 115 24 351 355 359 2 353 354 344 336 334 328 323 315 308 303 301 297 292 291 288 283
202 206 230 250 310 69 261 225 213 185 168 175 175 169 161 163 167 177 182 183 176 162 137 113 108 100 103 142 185 210 300 335 336 339 341 336 334 327 322 320 313 308 306 302 294 290 290 289 286
279 221 256 253 266 300 209 245 259 205 250 150 173 162 161 164 165 176 182 191 195 175 155 135 120 134 172 181 179 188 286 350 338 339 337 334 332 330 326 321 315 309 306 307 306 299 289 282 280
240 250 260 274 245 289 277 238 247 258 212 215 183 172 168 166 171 179 185 191 192 182 161 125 87 99 100 103 117 93 34 356 356 346 341 340 337 333 328 321 316 312 310 304 298 296 294 293 292
228 203 219 233 312 331 295 264 187 247 240 264 218 201 180 175 175 177 181 190 186 187 166 140 129 116 103 89 74 68 50 26 10 4 360 351 346 340 336 335 330 323 318 314 311 300 287 286 283
241 199 192 197 90 231 68 287 156 235 259 236 186 178 176 174 179 177 179 183 183 178 159 140 137 131 124 113 107 73 27 14 11 3 357 350 346 345 342 341 338 333 329 326 327 321 311 294 279
241 210 146 143 138 185 171 229 50 340 289 246 171 173 173 176 180 180 184 180 179 173 163 151 147 149 136 115 65 23 14 17 9 359 355 353 355 356 356 355 353 349 346 343 339 331 329 312 304
152 97 54 54 100 270 167 172 286 230 242 284 173 173 174 182 182 186 183 175 170 172 173 157 150 162 142 96 38 15 8 4 357 359 360 3 4 5 9 10 10 8 4 357 354 5 2 335 301
130 106 277 310 156 241 178 213 242 296 318 185 185 183 183 179 181 179 171 172 171 177 175 167 198 221 196 340 355 358 351 349 349 356 0 1 9 14 18 21 20 19 20 17 18 21 20 358 340
199 161 163 196 204 248 189 230 186 312 38 73 161 140 150 161 175 174 180 181 179 190 189 216 221 225 234 287 319 331 335 338 342 351 357 1 9 16 18 24 26 25 29 29 27 23 13 3 349
190 207 176 157 88 43 231 302 88 49 57 73 78 91 117 141 162 175 176 183 184 191 212 241 238 241 244 284 316 323 326 331 334 345 351 359 2 11 13 18 22 24 27 29 29 28 26 19 10
163 168 91 23 179 227 257 215 191 97 100 109 122 120 137 161 176 181 188 196 196 207 221 225 238 253 265 278 300 315 327 337 335 341 351 1 359 6 14 19 20 18 18 20 23 26 25 23 19
113 245 35 127 155 176 228 254 189 157 160 169 171 165 170 189 194 209 218 198 197 215 221 234 251 247 253 265 278 297 319 332 334 340 3 8 4 11 16 22 26 23 18 15 17 21 21 22 23
64 36 23 84 285 189 130 275 233 184 186 166 182 187 201 202 210 213 201 195 199 201 205 218 223 236 244 254 268 300 314 316 316 335 356 359 358 6 14 21 25 27 24 21 20 18 17 18 19